When you browse on this site, cookies collect data to enhance your experience and personalize the content and advertising you see.
Visit our Privacy Policy to learn more. By continuing to use the site, you agree to this use of cookies and data.
  • In Hungary
  • List of Countries
  • For 7 days
  • Water Temperature
  • Weather Map
  • News
  • Weather Widgets
  • user-avatar
    Login

    Hourly Weather Konstanz

    Today, 14 December, Saturday

    Time Temperature Precipitation Wind Pressure Humidity
    00:00 0°C° 0 mm 4 mps 711 mmHg 88%
    01:00 0°C° 0 mm 3 mps 711 mmHg 88%
    02:00 +1°C° 0 mm 3 mps 711 mmHg 86%
    03:00 +1°C° 0 mm 3 mps 711 mmHg 84%
    04:00 +1°C° 0 mm 3 mps 710 mmHg 81%
    05:00 +1°C° 0.5 mm 4 mps 710 mmHg 84%
    06:00 +2°C° 0.5 mm 5 mps 710 mmHg 86%
    07:00 +3°C° 0 mm 5 mps 710 mmHg 89%
    08:00 +4°C° 0.4 mm 6 mps 711 mmHg 86%
    09:00 +4°C° 0.4 mm 7 mps 712 mmHg 82%
    10:00 +5°C° 0.4 mm 8 mps 713 mmHg 79%
    11:00 +5°C° 0.1 mm 8 mps 714 mmHg 78%
    12:00 +5°C° 0.1 mm 7 mps 715 mmHg 77%
    13:00 +5°C° 0.1 mm 7 mps 716 mmHg 76%
    14:00 +5°C° 0 mm 6 mps 716 mmHg 78%
    15:00 +5°C° 0 mm 5 mps 717 mmHg 79%
    16:00 +5°C° 0 mm 4 mps 717 mmHg 80%
    17:00 +5°C° 0 mm 5 mps 718 mmHg 81%
    18:00 +6°C° 0 mm 5 mps 718 mmHg 81%
    19:00 +6°C° 0 mm 5 mps 719 mmHg 82%
    20:00 +6°C° 0 mm 4 mps 719 mmHg 82%
    21:00 +7°C° 0 mm 3 mps 719 mmHg 82%
    22:00 +7°C° 0 mm 3 mps 720 mmHg 82%
    23:00 +6°C° 0.1 mm 2 mps 719 mmHg 83%

    Tomorrow, 15 December, Sunday

    Time Temperature Precipitation Wind Pressure Humidity
    00:00 +6°C° 0.1 mm 2 mps 719 mmHg 84%
    01:00 +6°C° 0.1 mm 2 mps 719 mmHg 84%
    02:00 +6°C° 0.1 mm 2 mps 718 mmHg 82%
    03:00 +6°C° 0.1 mm 2 mps 718 mmHg 80%
    04:00 +6°C° 0.1 mm 2 mps 718 mmHg 77%
    05:00 +5°C° 0 mm 3 mps 718 mmHg 78%
    06:00 +5°C° 0 mm 3 mps 719 mmHg 78%
    07:00 +5°C° 0 mm 3 mps 719 mmHg 79%
    08:00 +6°C° 0 mm 4 mps 719 mmHg 78%
    09:00 +7°C° 0 mm 4 mps 720 mmHg 77%
    10:00 +8°C° 0 mm 4 mps 720 mmHg 77%
    11:00 +8°C° 0 mm 4 mps 720 mmHg 75%
    12:00 +10°C° 0 mm 4 mps 720 mmHg 74%
    13:00 +11°C° 0 mm 4 mps 720 mmHg 72%
    14:00 +11°C° 0 mm 4 mps 721 mmHg 74%
    15:00 +10°C° 0 mm 3 mps 721 mmHg 76%
    16:00 +10°C° 0 mm 2 mps 722 mmHg 78%
    17:00 +9°C° 0 mm 2 mps 722 mmHg 79%
    18:00 +8°C° 0 mm 2 mps 722 mmHg 81%
    19:00 +8°C° 0 mm 1 mps 722 mmHg 83%
    20:00 +7°C° 0 mm 1 mps 722 mmHg 82%
    21:00 +7°C° 0 mm 1 mps 723 mmHg 82%
    22:00 +6°C° 0 mm 1 mps 723 mmHg 82%
    23:00 +6°C° 0 mm 1 mps 723 mmHg 82%

    Day after tomorrow, 16 December, Monday

    Time Temperature Precipitation Wind Pressure Humidity
    00:00 +6°C° 0 mm 1 mps 723 mmHg 81%
    01:00 +6°C° 0 mm 1 mps 723 mmHg 81%
    02:00 +6°C° 0 mm 1 mps 723 mmHg 81%
    03:00 +5°C° 0 mm 1 mps 722 mmHg 81%
    04:00 +5°C° 0 mm 1 mps 722 mmHg 81%
    05:00 +5°C° 0 mm 1 mps 722 mmHg 82%
    06:00 +4°C° 0 mm 0 mps 722 mmHg 82%
    07:00 +4°C° 0 mm 0 mps 722 mmHg 83%
    08:00 +5°C° 0 mm 0 mps 722 mmHg 81%
    09:00 +6°C° 0 mm 1 mps 722 mmHg 79%
    10:00 +7°C° 0 mm 1 mps 722 mmHg 78%
    11:00 +8°C° 0 mm 1 mps 722 mmHg 75%
    12:00 +8°C° 0 mm 0 mps 722 mmHg 73%
    13:00 +9°C° 0 mm 0 mps 722 mmHg 71%
    14:00 +9°C° 0 mm 0 mps 721 mmHg 75%
    15:00 +8°C° 0 mm 0 mps 721 mmHg 79%
    16:00 +7°C° 0 mm 0 mps 721 mmHg 83%
    17:00 +7°C° 0 mm 0 mps 721 mmHg 84%
    18:00 +7°C° 0 mm 1 mps 721 mmHg 85%
    19:00 +7°C° 0 mm 1 mps 721 mmHg 86%
    20:00 +7°C° 0 mm 1 mps 721 mmHg 86%
    21:00 +7°C° 0 mm 1 mps 721 mmHg 86%
    22:00 +7°C° 0 mm 1 mps 721 mmHg 86%
    23:00 +7°C° 0 mm 1 mps 720 mmHg 86%

    17 December, Tuesday

    Time Temperature Precipitation Wind Pressure Humidity
    00:00 +7°C° 0 mm 1 mps 720 mmHg 85%
    01:00 +6°C° 0 mm 0 mps 720 mmHg 85%
    02:00 +6°C° 0 mm 0 mps 720 mmHg 85%
    03:00 +6°C° 0 mm 0 mps 720 mmHg 86%
    04:00 +7°C° 0 mm 1 mps 720 mmHg 86%
    05:00 +6°C° 0 mm 0 mps 720 mmHg 86%
    06:00 +6°C° 0 mm 0 mps 720 mmHg 86%
    07:00 +6°C° 0 mm 0 mps 720 mmHg 87%
    08:00 +6°C° 0 mm 0 mps 721 mmHg 85%
    09:00 +7°C° 0 mm 0 mps 721 mmHg 84%
    10:00 +8°C° 0 mm 0 mps 721 mmHg 82%
    11:00 +9°C° 0 mm 0 mps 721 mmHg 80%
    12:00 +10°C° 0 mm 0 mps 721 mmHg 77%
    13:00 +12°C° 0 mm 1 mps 721 mmHg 75%
    14:00 +10°C° 0 mm 0 mps 721 mmHg 78%
    15:00 +9°C° 0 mm 0 mps 721 mmHg 81%
    16:00 +9°C° 0 mm 0 mps 721 mmHg 84%
    17:00 +8°C° 0 mm 0 mps 721 mmHg 85%
    18:00 +8°C° 0 mm 0 mps 722 mmHg 86%
    19:00 +8°C° 0 mm 1 mps 722 mmHg 87%
    20:00 +7°C° 0 mm 0 mps 722 mmHg 87%
    21:00 +7°C° 0 mm 0 mps 723 mmHg 88%
    22:00 +6°C° 0 mm 0 mps 723 mmHg 88%
    23:00 +6°C° 0 mm 0 mps 723 mmHg 88%

    18 December, Wednesday

    Time Temperature Precipitation Wind Pressure Humidity
    00:00 +6°C° 0 mm 0 mps 723 mmHg 88%
    01:00 +6°C° 0 mm 0 mps 724 mmHg 88%
    02:00 +6°C° 0 mm 0 mps 724 mmHg 88%
    03:00 +6°C° 0 mm 0 mps 724 mmHg 87%
    04:00 +6°C° 0 mm 0 mps 724 mmHg 86%
    05:00 +6°C° 0 mm 0 mps 724 mmHg 86%
    06:00 +6°C° 0 mm 0 mps 724 mmHg 86%
    07:00 +6°C° 0 mm 0 mps 724 mmHg 86%
    08:00 +6°C° 0 mm 0 mps 724 mmHg 85%
    09:00 +7°C° 0 mm 0 mps 724 mmHg 83%
    10:00 +7°C° 0 mm 0 mps 724 mmHg 81%
    11:00 +9°C° 0 mm 1 mps 724 mmHg 79%
    12:00 +10°C° 0 mm 1 mps 724 mmHg 77%
    13:00 +11°C° 0 mm 1 mps 724 mmHg 74%
    14:00 +10°C° 0 mm 1 mps 724 mmHg 77%
    15:00 +9°C° 0 mm 1 mps 724 mmHg 81%
    16:00 +9°C° 0 mm 1 mps 724 mmHg 84%
    17:00 +8°C° 0 mm 1 mps 724 mmHg 85%
    18:00 +8°C° 0 mm 1 mps 724 mmHg 87%
    19:00 +7°C° 0 mm 1 mps 724 mmHg 88%
    20:00 +7°C° 0 mm 1 mps 724 mmHg 89%
    21:00 +7°C° 0 mm 1 mps 723 mmHg 89%
    22:00 +7°C° 0 mm 1 mps 723 mmHg 90%
    23:00 +7°C° 0 mm 1 mps 723 mmHg 90%

    19 December, Thursday

    Time Temperature Precipitation Wind Pressure Humidity
    00:00 +6°C° 0 mm 1 mps 722 mmHg 91%
    01:00 +6°C° 0 mm 1 mps 722 mmHg 91%
    02:00 +6°C° 0 mm 1 mps 722 mmHg 91%
    03:00 +6°C° 0 mm 1 mps 721 mmHg 92%
    04:00 +6°C° 0 mm 1 mps 720 mmHg 92%
    05:00 +5°C° 0 mm 0 mps 720 mmHg 92%
    06:00 +5°C° 0 mm 0 mps 720 mmHg 92%
    07:00 +5°C° 0 mm 0 mps 720 mmHg 92%
    08:00 +5°C° 0 mm 0 mps 720 mmHg 91%
    09:00 +6°C° 0 mm 0 mps 720 mmHg 89%
    10:00 +6°C° 0 mm 0 mps 720 mmHg 87%
    11:00 +7°C° 0 mm 0 mps 720 mmHg 84%
    12:00 +8°C° 0 mm 0 mps 720 mmHg 81%
    13:00 +9°C° 0 mm 0 mps 719 mmHg 78%
    14:00 +8°C° 0 mm 0 mps 719 mmHg 82%
    15:00 +7°C° 0 mm 0 mps 719 mmHg 85%
    16:00 +7°C° 0 mm 0 mps 718 mmHg 88%
    17:00 +6°C° 0 mm 0 mps 718 mmHg 89%
    18:00 +6°C° 0 mm 0 mps 718 mmHg 89%
    19:00 +5°C° 0 mm 0 mps 718 mmHg 89%
    20:00 +5°C° 0 mm 0 mps 718 mmHg 89%
    21:00 +5°C° 0 mm 0 mps 718 mmHg 89%
    22:00 +5°C° 0 mm 0 mps 718 mmHg 89%
    23:00 +4°C° 0 mm 0 mps 718 mmHg 89%
    Show more